,,Stat1,,Stat2,,Stat3,,Stat4,,Wind1,,Wind1,
time,status,PR1M_SUM,status,RH1M_AVG,status,SR1M_AVG,status,TA1M_AVG,status,W1dAve1m,status,W1sAve1m,
2000-02-02, 00:00:00,VALID,0,VALID,82.1151,VALID,0,VALID,20.2515,VALID,218,VALID,2.51705,
2000-02-02, 00:01:00,VALID,0,VALID,81.5798,VALID,0,VALID,20.245,VALID,222,VALID,2.84435,
2000-02-02, 00:02:00,VALID,0,VALID,81.1741,VALID,-0.0169808,VALID,20.3101,VALID,216,VALID,2.79202,
2000-02-02, 00:03:00,VALID,0,VALID,81.1093,VALID,-0.0509425,VALID,20.3522,VALID,214,VALID,2.62637,
2000-02-02, 00:04:00,VALID,0,VALID,81.0305,VALID,-0.0849042,VALID,20.3815,VALID,212,VALID,1.97246,
2000-02-02, 00:05:00,VALID,0,VALID,80.902,VALID,-0.0339617,VALID,20.3977,VALID,194,VALID,2.1222,
2000-02-02, 00:06:00,VALID,0,VALID,81.1665,VALID,-0.0339617,VALID,20.3934,VALID,220,VALID,2.82586,
2000-02-02, 00:07:00,VALID,0,VALID,81.4971,VALID,-0.0679233,VALID,20.381,VALID,223,VALID,2.82939,
2000-02-02, 00:08:00,VALID,0,VALID,81.7286,VALID,0,VALID,20.3624,VALID,208,VALID,2.99568,
2000-02-02, 00:09:00,VALID,0,VALID,81.0813,VALID,-0.0679233,VALID,20.3454,VALID,201,VALID,3.25486,
2000-02-02, 00:10:00,VALID,0,VALID,81.0686,VALID,-0.0169808,VALID,20.3807,VALID,190,VALID,1.35896,
2000-02-02, 00:11:00,VALID,0,VALID,80.9389,VALID,-0.0679233,VALID,20.4076,VALID,164,VALID,2.89675,
2000-02-02, 00:12:00,VALID,0,VALID,81.1106,VALID,-0.0679233,VALID,20.4103,VALID,213,VALID,1.99638,
2000-02-02, 00:13:00,VALID,0,VALID,81.1271,VALID,-0.0169808,VALID,20.4136,VALID,224,VALID,2.11118,
2000-02-02, 00:14:00,VALID,0,VALID,81.2161,VALID,-0.0509425,VALID,20.4006,VALID,222,VALID,1.49568,
2000-02-02, 00:15:00,VALID,0,VALID,81.3636,VALID,-0.0679233,VALID,20.3845,VALID,217,VALID,2.1727,
2000-02-02, 00:16:00,VALID,0,VALID,81.431,VALID,-0.0339617,VALID,20.375,VALID,216,VALID,2.3639,
2000-02-02, 00:17:00,VALID,0,VALID,81.6535,VALID,0,VALID,20.3579,VALID,221,VALID,2.41681,
2000-02-02, 00:18:00,VALID,0,VALID,81.4704,VALID,0.0339617,VALID,20.3377,VALID,187,VALID,1.77513,
2000-02-02, 00:19:00,VALID,0,VALID,81.253,VALID,0.0679233,VALID,20.331,VALID,220,VALID,1.5714,
2000-02-02, 00:20:00,VALID,0,VALID,80.4786,VALID,0.0849042,VALID,20.3536,VALID,222,VALID,2.61562,
2000-02-02, 00:21:00,VALID,0,VALID,79.5732,VALID,0.0679233,VALID,20.4508,VALID,230,VALID,2.19171,
2000-02-02, 00:22:00,VALID,0,VALID,80.3171,VALID,0.0679233,VALID,20.5281,VALID,193,VALID,2.57496,
2000-02-02, 00:23:00,VALID,0,VALID,80.738,VALID,0.0679233,VALID,20.5254,VALID,221,VALID,2.26133,
2000-02-02, 00:24:00,VALID,0,VALID,81.0368,VALID,0.0849042,VALID,20.4866,VALID,212,VALID,1.36859,
2000-02-02, 00:25:00,VALID,0,VALID,81.0533,VALID,0.0849042,VALID,20.4446,VALID,200,VALID,2.19511,
2000-02-02, 00:26:00,VALID,0,VALID,81.0979,VALID,0.0849042,VALID,20.4015,VALID,208,VALID,1.94184,
2000-02-02, 00:27:00,VALID,0,VALID,81.0966,VALID,0.0679233,VALID,20.4155,VALID,196,VALID,1.71071,
2000-02-02, 00:28:00,VALID,0,VALID,80.8715,VALID,0.0679233,VALID,20.4085,VALID,213,VALID,2.59724,
2000-02-02, 00:29:00,VALID,0,VALID,80.8194,VALID,0.0679233,VALID,20.4317,VALID,217,VALID,2.29461,
2000-02-02, 00:30:00,VALID,0,VALID,81.1436,VALID,0.0509425,VALID,20.4279,VALID,213,VALID,2.0758,
2000-02-02, 00:31:00,VALID,0,VALID,81.3356,VALID,0.0679233,VALID,20.4088,VALID,210,VALID,2.23684,
2000-02-02, 00:32:00,VALID,0,VALID,80.8639,VALID,0.0169808,VALID,20.3964,VALID,203,VALID,1.91632,
2000-02-02, 00:33:00,VALID,0,VALID,81.3204,VALID,0,VALID,20.4066,VALID,219,VALID,2,
2000-02-02, 00:34:00,VALID,0,VALID,81.3954,VALID,-0.0339617,VALID,20.3942,VALID,214,VALID,2.10605,
2000-02-02, 00:35:00,VALID,0,VALID,81.2225,VALID,-0.0509425,VALID,20.3778,VALID,216,VALID,2.32607,
2000-02-02, 00:36:00,VALID,0,VALID,81.3242,VALID,-0.0169808,VALID,20.3812,VALID,220,VALID,1.89434,
2000-02-02, 00:37:00,VALID,0,VALID,81.3636,VALID,-0.0169808,VALID,20.3743,VALID,191,VALID,1.93229,
2000-02-02, 00:38:00,VALID,0,VALID,81.595,VALID,-0.0679233,VALID,20.3616,VALID,211,VALID,1.41113,
2000-02-02, 00:39:00,VALID,0,VALID,81.4692,VALID,-0.0509425,VALID,20.3457,VALID,196,VALID,1.78466,
2000-02-02, 00:40:00,VALID,0,VALID,81.2721,VALID,-0.0339617,VALID,20.3459,VALID,197,VALID,1.27056,
2000-02-02, 00:41:00,VALID,0,VALID,81.3903,VALID,-0.0679233,VALID,20.3489,VALID,236,VALID,1.5026,
2000-02-02, 00:42:00,VALID,0,VALID,81.3891,VALID,-0.0169808,VALID,20.3589,VALID,195,VALID,2.24732,
2000-02-02, 00:43:00,VALID,0,VALID,81.1754,VALID,-0.0339617,VALID,20.3586,VALID,209,VALID,1.08347,
2000-02-02, 00:44:00,VALID,0,VALID,81.0025,VALID,-0.0169808,VALID,20.3681,VALID,199,VALID,1.99959,
2000-02-02, 00:45:00,VALID,0,VALID,80.8969,VALID,-0.0339617,VALID,20.3942,VALID,216,VALID,1.87204,
2000-02-02, 00:46:00,VALID,0,VALID,80.9058,VALID,-0.0679233,VALID,20.4068,VALID,224,VALID,2.82011,
2000-02-02, 00:47:00,VALID,0,VALID,80.9262,VALID,-0.0169808,VALID,20.4096,VALID,218,VALID,2.47903,
2000-02-02, 00:48:00,VALID,0,VALID,80.827,VALID,-0.0169808,VALID,20.416,VALID,223,VALID,2.52248,
2000-02-02, 00:49:00,VALID,0,VALID,80.9847,VALID,-0.0679233,VALID,20.4332,VALID,201,VALID,2.25117,
2000-02-02, 00:50:00,VALID,0,VALID,81.2098,VALID,-0.0679233,VALID,20.4136,VALID,227,VALID,2.31271,
2000-02-02, 00:51:00,VALID,0,VALID,81.2975,VALID,-0.0169808,VALID,20.377,VALID,227,VALID,2.77813,
2000-02-02, 00:52:00,VALID,0,VALID,80.8308,VALID,0,VALID,20.3872,VALID,196,VALID,2.72678,
2000-02-02, 00:53:00,VALID,0,VALID,80.7774,VALID,-0.0509425,VALID,20.4136,VALID,199,VALID,2.49062,
2000-02-02, 00:54:01,VALID,0,VALID,80.7812,VALID,0,VALID,20.4329,VALID,228,VALID,2.02344,
2000-02-02, 00:55:01,VALID,0,VALID,80.5625,VALID,-0.0339617,VALID,20.4292,VALID,223,VALID,2.96484,
2000-02-02, 00:56:00,VALID,0,VALID,80.6274,VALID,-0.0339617,VALID,20.4521,VALID,217,VALID,2.09245,
2000-02-02, 00:57:00,VALID,0,VALID,80.71,VALID,-0.0509425,VALID,20.4645,VALID,199,VALID,2.36853,
2000-02-02, 00:58:00,VALID,0,VALID,80.4086,VALID,-0.0169808,VALID,20.469,VALID,204,VALID,2.27755,
2000-02-02, 00:59:00,VALID,0,VALID,80.7571,VALID,-0.0339617,VALID,20.4747,VALID,209,VALID,2.00555,
2000-02-02, 01:00:00,VALID,0,VALID,80.7698,VALID,-0.0169808,VALID,20.4456,VALID,197,VALID,2.14928,
2000-02-02, 01:01:00,VALID,0,VALID,80.4722,VALID,-0.0169808,VALID,20.4451,VALID,192,VALID,1.73643,
2000-02-02, 01:02:00,VALID,0,VALID,80.7609,VALID,-0.0509425,VALID,20.462,VALID,220,VALID,1.0662,
2000-02-02, 01:03:00,VALID,0,VALID,80.4277,VALID,0,VALID,20.4521,VALID,162,VALID,1.90415,
2000-02-02, 01:04:00,VALID,0,VALID,80.0907,VALID,-0.0169808,VALID,20.4752,VALID,160,VALID,2.12051,
2000-02-02, 01:05:00,VALID,0,VALID,80.3565,VALID,-0.0339617,VALID,20.5005,VALID,155,VALID,1.61657,
2000-02-02, 01:06:00,VALID,0,VALID,80.1327,VALID,-0.0339617,VALID,20.5003,VALID,210,VALID,1.41777,
2000-02-02, 01:07:00,VALID,0,VALID,80.6274,VALID,-0.0169808,VALID,20.4971,VALID,172,VALID,1.24609,
2000-02-02, 01:08:00,VALID,0,VALID,80.7304,VALID,0,VALID,20.475,VALID,160,VALID,1.14512,
2000-02-02, 01:09:00,VALID,0,VALID,80.4646,VALID,-0.0169808,VALID,20.4456,VALID,209,VALID,1.80829,
2000-02-02, 01:10:00,VALID,0,VALID,80.766,VALID,0,VALID,20.4262,VALID,198,VALID,1.97266,
2000-02-02, 01:11:00,VALID,0,VALID,80.546,VALID,-0.0339617,VALID,20.4165,VALID,221,VALID,2.20812,
2000-02-02, 01:12:00,VALID,0,VALID,80.3438,VALID,-0.0169808,VALID,20.4295,VALID,190,VALID,1.53884,
2000-02-02, 01:13:00,VALID,0,VALID,80.6413,VALID,0,VALID,20.4454,VALID,184,VALID,1.59005,
2000-02-02, 01:14:00,VALID,0,VALID,80.7863,VALID,-0.0339617,VALID,20.4424,VALID,199,VALID,1.56086,
2000-02-02, 01:15:00,VALID,0,VALID,81.0139,VALID,-0.0509425,VALID,20.4033,VALID,181,VALID,0.97614,
2000-02-02, 01:16:01,VALID,0,VALID,81.1729,VALID,0,VALID,20.3641,VALID,163,VALID,1.22841,
2000-02-02, 01:17:01,VALID,0,VALID,80.9224,VALID,0,VALID,20.3546,VALID,180,VALID,2.03762,
2000-02-02, 01:18:00,VALID,0,VALID,80.7176,VALID,0,VALID,20.3616,VALID,158,VALID,2.4335,
2000-02-02, 01:19:00,VALID,0,VALID,80.2675,VALID,0,VALID,20.3834,VALID,153,VALID,1.54395,
2000-02-02, 01:20:00,VALID,0,VALID,80.0411,VALID,0,VALID,20.4389,VALID,187,VALID,0.848273,
2000-02-02, 01:21:00,VALID,0,VALID,80.4239,VALID,-0.0169808,VALID,20.4585,VALID,185,VALID,2.18867,
2000-02-02, 01:22:00,VALID,0,VALID,80.5956,VALID,-0.0339617,VALID,20.4322,VALID,225,VALID,2.18772,
2000-02-02, 01:23:00,VALID,0,VALID,80.8473,VALID,-0.0169808,VALID,20.4168,VALID,209,VALID,0.937695,
2000-02-02, 01:24:00,VALID,0,VALID,80.7647,VALID,0,VALID,20.3966,VALID,213,VALID,1.92087,
2000-02-02, 01:25:00,VALID,0,VALID,80.5867,VALID,0,VALID,20.3902,VALID,213,VALID,2.01624,
2000-02-02, 01:26:00,VALID,0,VALID,80.5116,VALID,0,VALID,20.3969,VALID,192,VALID,1.85938,
2000-02-02, 01:27:00,VALID,0,VALID,80.1709,VALID,-0.0339617,VALID,20.4039,VALID,186,VALID,2.40156,
2000-02-02, 01:28:00,VALID,0,VALID,80.1276,VALID,-0.0339617,VALID,20.4066,VALID,206,VALID,1.86123,
2000-02-02, 01:29:00,VALID,0,VALID,79.961,VALID,-0.0169808,VALID,20.423,VALID,194,VALID,2.62068,
2000-02-02, 01:30:00,VALID,0,VALID,80.0055,VALID,-0.0339617,VALID,20.4456,VALID,217,VALID,3.15752,
2000-02-02, 01:31:00,VALID,0,VALID,79.7741,VALID,-0.0169808,VALID,20.4591,VALID,221,VALID,2.56661,
2000-02-02, 01:32:00,VALID,0,VALID,79.797,VALID,-0.0339617,VALID,20.4618,VALID,213,VALID,2.74753,
2000-02-02, 01:33:00,VALID,0,VALID,79.3545,VALID,0,VALID,20.4744,VALID,217,VALID,2.82717,
2000-02-02, 01:34:00,VALID,0,VALID,79.4829,VALID,-0.0169808,VALID,20.5005,VALID,231,VALID,2.44316,
2000-02-02, 01:35:00,VALID,0,VALID,79.7182,VALID,0,VALID,20.4871,VALID,219,VALID,2.35136,
2000-02-02, 01:36:00,VALID,0,VALID,79.8428,VALID,-0.0679233,VALID,20.4752,VALID,208,VALID,2.04355,
2000-02-02, 01:37:00,VALID,0,VALID,80.0221,VALID,-0.0169808,VALID,20.4518,VALID,215,VALID,1.8099,
2000-02-02, 01:38:00,VALID,0,VALID,80.3095,VALID,0,VALID,20.4335,VALID,206,VALID,1.44219,
2000-02-02, 01:39:01,VALID,0,VALID,80.1238,VALID,0,VALID,20.3845,VALID,216,VALID,1.26623,
2000-02-02, 01:40:00,VALID,0,VALID,80.1467,VALID,-0.0169808,VALID,20.3718,VALID,193,VALID,1.34889,
2000-02-02, 01:41:00,VALID,0,VALID,79.2184,VALID,-0.0169808,VALID,20.371,VALID,220,VALID,2.37609,
2000-02-02, 01:42:00,VALID,0,VALID,79.2375,VALID,0,VALID,20.3909,VALID,225,VALID,3.00603,
2000-02-02, 01:43:00,VALID,0,VALID,78.4059,VALID,-0.0169808,VALID,20.42,VALID,205,VALID,2.59067,
2000-02-02, 01:44:00,VALID,0,VALID,78.8064,VALID,-0.0169808,VALID,20.4782,VALID,209,VALID,1.4706,
2000-02-02, 01:45:00,VALID,0,VALID,78.4084,VALID,0,VALID,20.4841,VALID,207,VALID,1.72593,
2000-02-02, 01:46:00,VALID,0,VALID,78.9743,VALID,0.0169808,VALID,20.4976,VALID,164,VALID,1.43729,
2000-02-02, 01:47:00,VALID,0,VALID,79.118,VALID,0,VALID,20.4486,VALID,204,VALID,1.70498,
2000-02-02, 01:48:00,VALID,0,VALID,79.3138,VALID,-0.0339617,VALID,20.4039,VALID,169,VALID,1.95198,
2000-02-02, 01:49:00,VALID,0,VALID,79.1701,VALID,-0.0339617,VALID,20.3783,VALID,185,VALID,1.87812,
2000-02-02, 01:50:01,VALID,0,VALID,79.3418,VALID,-0.0169808,VALID,20.3425,VALID,171,VALID,1.55366,
2000-02-02, 01:51:00,VALID,0,VALID,79.0493,VALID,-0.0169808,VALID,20.3198,VALID,212,VALID,2.52402,
2000-02-02, 01:52:00,VALID,0,VALID,79.3036,VALID,-0.0339617,VALID,20.3328,VALID,185,VALID,1.81055,
2000-02-02, 01:53:00,VALID,0,VALID,79.5325,VALID,-0.0169808,VALID,20.3201,VALID,190,VALID,1.52832,
2000-02-02, 01:54:00,VALID,0,VALID,78.7759,VALID,-0.0339617,VALID,20.2937,VALID,221,VALID,2.39543,
2000-02-02, 01:55:00,VALID,0,VALID,77.868,VALID,-0.0169808,VALID,20.3591,VALID,222,VALID,3.10033,
2000-02-02, 01:56:00,VALID,0,VALID,77.6327,VALID,0,VALID,20.4561,VALID,198,VALID,3.0651,
2000-02-02, 01:57:00,VALID,0,VALID,77.5285,VALID,-0.0169808,VALID,20.5075,VALID,192,VALID,2.41786,
2000-02-02, 01:58:00,VALID,0,VALID,77.6518,VALID,-0.0679233,VALID,20.514,VALID,182,VALID,2.62274,
2000-02-02, 01:59:00,VALID,0,VALID,77.7777,VALID,-0.0509425,VALID,20.5046,VALID,217,VALID,2.49548,
2000-02-02, 02:00:00,VALID,0,VALID,77.3937,VALID,-0.0509425,VALID,20.4879,VALID,204,VALID,2.2367,
2000-02-02, 02:01:01,VALID,0,VALID,77.8184,VALID,-0.0169808,VALID,20.4906,VALID,189,VALID,2.80983,
2000-02-02, 02:02:00,VALID,0,VALID,78.0842,VALID,-0.0339617,VALID,20.4914,VALID,192,VALID,1.0183,
2000-02-02, 02:03:00,VALID,0,VALID,78.3766,VALID,0,VALID,20.4523,VALID,221,VALID,1.5585,
2000-02-02, 02:04:00,VALID,0,VALID,78.4758,VALID,-0.0169808,VALID,20.3937,VALID,220,VALID,2.05508,
2000-02-02, 02:05:00,VALID,0,VALID,78.4745,VALID,-0.0169808,VALID,20.3743,VALID,197,VALID,2.18627,
2000-02-02, 02:06:00,VALID,0,VALID,78.1032,VALID,-0.0169808,VALID,20.371,VALID,184,VALID,2.15,
2000-02-02, 02:07:00,VALID,0,VALID,78.2355,VALID,-0.0169808,VALID,20.3643,VALID,202,VALID,2.00846,
2000-02-02, 02:08:00,VALID,0,VALID,78.5025,VALID,0,VALID,20.3484,VALID,214,VALID,2.44336,
2000-02-02, 02:09:00,VALID,0,VALID,78.3245,VALID,0,VALID,20.3522,VALID,203,VALID,2.374,
2000-02-02, 02:10:00,VALID,0,VALID,78.5063,VALID,0,VALID,20.3457,VALID,215,VALID,2.33203,
2000-02-02, 02:11:00,VALID,0,VALID,78.2291,VALID,0,VALID,20.333,VALID,213,VALID,3.13086,
2000-02-02, 02:12:01,VALID,0,VALID,78.4021,VALID,-0.0169808,VALID,20.3586,VALID,207,VALID,2.21027,
2000-02-02, 02:13:00,VALID,0,VALID,78.5661,VALID,0,VALID,20.3748,VALID,226,VALID,2.10958,
2000-02-02, 02:14:00,VALID,0,VALID,78.8115,VALID,-0.0339617,VALID,20.3616,VALID,224,VALID,1.39618,
2000-02-02, 02:15:00,VALID,0,VALID,78.5979,VALID,-0.0169808,VALID,20.3554,VALID,223,VALID,2.34079,
2000-02-02, 02:16:00,VALID,0,VALID,78.7683,VALID,-0.0169808,VALID,20.3323,VALID,226,VALID,1.8896,
2000-02-02, 02:17:00,VALID,0,VALID,78.7187,VALID,-0.0169808,VALID,20.3198,VALID,196,VALID,2.29482,
2000-02-02, 02:18:00,VALID,0,VALID,78.444,VALID,0,VALID,20.3166,VALID,209,VALID,2.79402,
2000-02-02, 02:19:00,VALID,0,VALID,78.3932,VALID,0,VALID,20.3325,VALID,225,VALID,2.63711,
2000-02-02, 02:20:00,VALID,0,VALID,78.7314,VALID,0,VALID,20.336,VALID,224,VALID,2.15399,
2000-02-02, 02:21:00,VALID,0,VALID,78.8408,VALID,-0.0169808,VALID,20.2937,VALID,217,VALID,1.56895,
2000-02-02, 02:22:00,VALID,0,VALID,78.8547,VALID,0,VALID,20.3005,VALID,208,VALID,1.82205,
2000-02-02, 02:23:01,VALID,0,VALID,78.7861,VALID,-0.0169808,VALID,20.2843,VALID,201,VALID,2.54023,
2000-02-02, 02:24:00,VALID,0,VALID,78.9959,VALID,0,VALID,20.2679,VALID,187,VALID,2.02464,
2000-02-02, 02:25:00,VALID,0,VALID,79.0404,VALID,0,VALID,20.2552,VALID,181,VALID,2.21361,
2000-02-02, 02:26:00,VALID,0,VALID,78.931,VALID,-0.0169808,VALID,20.2582,VALID,184,VALID,2.16189,
2000-02-02, 02:27:00,VALID,0,VALID,79.0836,VALID,0,VALID,20.2649,VALID,183,VALID,1.48638,
2000-02-02, 02:28:00,VALID,0,VALID,79.2477,VALID,0,VALID,20.2356,VALID,218,VALID,2.06456,
2000-02-02, 02:29:00,VALID,0,VALID,79.2413,VALID,-0.0169808,VALID,20.2226,VALID,214,VALID,2.2278,
2000-02-02, 02:30:00,VALID,0,VALID,79.4028,VALID,-0.0339617,VALID,20.2296,VALID,215,VALID,2.99092,
2000-02-02, 02:31:00,VALID,0,VALID,79.4193,VALID,-0.0679233,VALID,20.2229,VALID,215,VALID,2.21484,
2000-02-02, 02:32:00,VALID,0,VALID,79.4753,VALID,-0.0509425,VALID,20.2038,VALID,215,VALID,1.95271,
2000-02-02, 02:33:00,VALID,0,VALID,79.3176,VALID,0,VALID,20.1908,VALID,220,VALID,2.42759,
2000-02-02, 02:34:01,VALID,0,VALID,79.6279,VALID,-0.0509425,VALID,20.1876,VALID,222,VALID,2.67812,
2000-02-02, 02:35:00,VALID,0,VALID,79.6063,VALID,-0.0509425,VALID,20.1846,VALID,219,VALID,3.03207,
2000-02-02, 02:36:00,VALID,0,VALID,79.7461,VALID,-0.0679233,VALID,20.1943,VALID,192,VALID,2.50801,
2000-02-02, 02:37:00,VALID,0,VALID,79.7741,VALID,-0.0509425,VALID,20.1879,VALID,194,VALID,2.20573,
2000-02-02, 02:38:00,VALID,0,VALID,79.755,VALID,-0.0339617,VALID,20.1682,VALID,201,VALID,2.33359,
2000-02-02, 02:39:00,VALID,0,VALID,79.3608,VALID,-0.0169808,VALID,20.1879,VALID,205,VALID,1.95092,
2000-02-02, 02:40:00,VALID,0,VALID,79.5173,VALID,-0.0169808,VALID,20.2033,VALID,173,VALID,1.63528,
2000-02-02, 02:41:00,VALID,0,VALID,79.6304,VALID,-0.0169808,VALID,20.1973,VALID,176,VALID,1.45833,
2000-02-02, 02:42:00,VALID,0,VALID,79.6546,VALID,-0.0679233,VALID,20.1943,VALID,230,VALID,3.08929,
2000-02-02, 02:43:00,VALID,0,VALID,80.2929,VALID,-0.0169808,VALID,20.1712,VALID,211,VALID,2.2021,
2000-02-02, 02:44:00,VALID,0,VALID,80.3692,VALID,0,VALID,20.1257,VALID,217,VALID,2.63055,
2000-02-02, 02:45:01,VALID,0,VALID,79.9394,VALID,0,VALID,20.1192,VALID,223,VALID,2.53843,
2000-02-02, 02:46:00,VALID,0,VALID,80.4239,VALID,0,VALID,20.1453,VALID,183,VALID,2.08429,
2000-02-02, 02:47:00,VALID,0,VALID,80.4074,VALID,0,VALID,20.1262,VALID,199,VALID,2.25987,
2000-02-02, 02:48:00,VALID,0,VALID,80.3985,VALID,-0.0169808,VALID,20.1195,VALID,205,VALID,1.879,
2000-02-02, 02:49:00,VALID,0,VALID,80.2917,VALID,0,VALID,20.1168,VALID,228,VALID,3.13535,
2000-02-02, 02:50:00,VALID,0,VALID,80.2484,VALID,0,VALID,20.123,VALID,218,VALID,2.68442,
2000-02-02, 02:51:00,VALID,0,VALID,80.1976,VALID,0,VALID,20.1459,VALID,211,VALID,2.13457,
2000-02-02, 02:52:00,VALID,0,VALID,79.6088,VALID,-0.0169808,VALID,20.1553,VALID,214,VALID,3.48568,
2000-02-02, 02:53:00,VALID,0,VALID,78.3448,VALID,-0.0169808,VALID,20.2522,VALID,222,VALID,3.72422,
2000-02-02, 02:54:00,VALID,0,VALID,78.1846,VALID,0,VALID,20.3912,VALID,224,VALID,2.36018,
2000-02-02, 02:55:01,VALID,0,VALID,78.5343,VALID,0,VALID,20.4359,VALID,213,VALID,3.70251,
2000-02-02, 02:56:01,VALID,0,VALID,78.6526,VALID,0,VALID,20.4138,VALID,202,VALID,2.19249,
2000-02-02, 02:57:00,VALID,0,VALID,78.9832,VALID,-0.0169808,VALID,20.3842,VALID,208,VALID,2.25469,
2000-02-02, 02:58:00,VALID,0,VALID,79.2642,VALID,-0.0169808,VALID,20.3392,VALID,213,VALID,2.29893,
2000-02-02, 02:59:00,VALID,0,VALID,79.0468,VALID,0,VALID,20.3067,VALID,203,VALID,3.52652,
2000-02-02, 03:00:00,VALID,0,VALID,78.8802,VALID,0,VALID,20.3231,VALID,195,VALID,2.42145,
2000-02-02, 03:01:00,VALID,0,VALID,78.9183,VALID,-0.0169808,VALID,20.3357,VALID,224,VALID,3.50802,
2000-02-02, 03:02:00,VALID,0,VALID,79.2731,VALID,-0.0509425,VALID,20.3139,VALID,208,VALID,2.59272,
2000-02-02, 03:03:00,VALID,0,VALID,78.519,VALID,-0.101885,VALID,20.2786,VALID,183,VALID,1.85785,
2000-02-02, 03:04:00,VALID,0,VALID,78.6665,VALID,-0.101885,VALID,20.3107,VALID,210,VALID,1.83574,
2000-02-02, 03:05:00,VALID,0,VALID,78.8319,VALID,-0.0849042,VALID,20.3236,VALID,226,VALID,2.29996,
2000-02-02, 03:06:00,VALID,0,VALID,79.2197,VALID,-0.101885,VALID,20.2975,VALID,220,VALID,1.96426,
2000-02-02, 03:07:00,VALID,0,VALID,79.4142,VALID,-0.101885,VALID,20.2557,VALID,197,VALID,1.58398,
2000-02-02, 03:08:00,VALID,0,VALID,79.2159,VALID,-0.118866,VALID,20.2202,VALID,192,VALID,2.30254,
2000-02-02, 03:09:00,VALID,0,VALID,78.7098,VALID,-0.101885,VALID,20.2431,VALID,203,VALID,2.5018,
2000-02-02, 03:10:00,VALID,0,VALID,78.5572,VALID,-0.101885,VALID,20.295,VALID,189,VALID,1.21875,
2000-02-02, 03:11:00,VALID,0,VALID,78.5775,VALID,-0.0849042,VALID,20.3077,VALID,223,VALID,1.79644,
2000-02-02, 03:12:00,VALID,0,VALID,78.6716,VALID,-0.101885,VALID,20.3077,VALID,209,VALID,1.39286,
2000-02-02, 03:13:00,VALID,0,VALID,78.9234,VALID,-0.101885,VALID,20.2977,VALID,190,VALID,1.83882,
2000-02-02, 03:14:00,VALID,0,VALID,79.1459,VALID,-0.101885,VALID,20.256,VALID,195,VALID,2.87315,
2000-02-02, 03:15:00,VALID,0,VALID,78.9806,VALID,-0.101885,VALID,20.2433,VALID,166,VALID,2.61845,
2000-02-02, 03:16:00,VALID,0,VALID,78.547,VALID,-0.101885,VALID,20.2269,VALID,198,VALID,1.66365,
2000-02-02, 03:17:00,VALID,0,VALID,78.7835,VALID,-0.0509425,VALID,20.2783,VALID,196,VALID,2.21957,
2000-02-02, 03:18:00,VALID,0,VALID,79.2286,VALID,0,VALID,20.2612,VALID,225,VALID,1.99752,
2000-02-02, 03:19:00,VALID,0,VALID,79.3837,VALID,-0.0169808,VALID,20.2124,VALID,219,VALID,2.84707,
2000-02-02, 03:20:00,VALID,0,VALID,79.2845,VALID,0,VALID,20.1866,VALID,202,VALID,2.89289,
2000-02-02, 03:21:00,VALID,0,VALID,79.2121,VALID,0,VALID,20.1607,VALID,220,VALID,1.5918,
2000-02-02, 03:22:00,VALID,0,VALID,79.3316,VALID,0,VALID,20.1513,VALID,224,VALID,1.81489,
2000-02-02, 03:23:00,VALID,0,VALID,78.8001,VALID,0,VALID,20.1411,VALID,246,VALID,1.50879,
2000-02-02, 03:24:00,VALID,0,VALID,78.898,VALID,0,VALID,20.167,VALID,187,VALID,1.4996,
2000-02-02, 03:25:00,VALID,0,VALID,78.9043,VALID,0,VALID,20.1968,VALID,206,VALID,1.70436,
2000-02-02, 03:26:00,VALID,0,VALID,78.608,VALID,0,VALID,20.1998,VALID,217,VALID,2.25412,
2000-02-02, 03:27:00,VALID,0,VALID,78.6805,VALID,-0.0169808,VALID,20.2321,VALID,217,VALID,2.61317,
2000-02-02, 03:28:00,VALID,0,VALID,78.7492,VALID,0,VALID,20.2418,VALID,196,VALID,1.17229,
2000-02-02, 03:29:00,VALID,0,VALID,79.0086,VALID,0,VALID,20.2647,VALID,223,VALID,0.581003,
2000-02-02, 03:30:00,VALID,0,VALID,78.9692,VALID,0,VALID,20.2321,VALID,182,VALID,1.52006,
2000-02-02, 03:31:00,VALID,0,VALID,78.8484,VALID,0,VALID,20.2219,VALID,208,VALID,2.56949,
2000-02-02, 03:32:00,VALID,0,VALID,78.9183,VALID,0.0169808,VALID,20.2286,VALID,212,VALID,2.60465,
2000-02-02, 03:33:00,VALID,0,VALID,79.3901,VALID,0,VALID,20.2256,VALID,228,VALID,2.08498,
2000-02-02, 03:34:00,VALID,0,VALID,79.1943,VALID,0.0339617,VALID,20.1995,VALID,236,VALID,1.92832,
2000-02-02, 03:35:00,VALID,0,VALID,79.4206,VALID,0,VALID,20.1829,VALID,178,VALID,2.08923,
2000-02-02, 03:36:00,VALID,0,VALID,79.5414,VALID,0,VALID,20.1804,VALID,156,VALID,1.7793,
2000-02-02, 03:37:00,VALID,0,VALID,79.6673,VALID,0,VALID,20.1642,VALID,188,VALID,1.57118,
2000-02-02, 03:38:00,VALID,0,VALID,79.5745,VALID,-0.0339617,VALID,20.1478,VALID,197,VALID,1.05117,
2000-02-02, 03:39:01,VALID,0,VALID,79.7627,VALID,0,VALID,20.1317,VALID,227,VALID,2.34515,
2000-02-02, 03:40:00,VALID,0,VALID,79.7321,VALID,0,VALID,20.122,VALID,203,VALID,2.52858,
2000-02-02, 03:41:00,VALID,0,VALID,79.7906,VALID,0,VALID,20.1222,VALID,225,VALID,2.35482,
2000-02-02, 03:42:00,VALID,0,VALID,79.8504,VALID,0.0169808,VALID,20.1255,VALID,215,VALID,1.91161,
2000-02-02, 03:43:00,VALID,0,VALID,79.5897,VALID,0.0169808,VALID,20.1026,VALID,202,VALID,1.36657,
2000-02-02, 03:44:00,VALID,0,VALID,79.7143,VALID,0,VALID,20.1125,VALID,218,VALID,1.26213,
2000-02-02, 03:45:00,VALID,0,VALID,79.8924,VALID,0,VALID,20.0961,VALID,236,VALID,1.80321,
2000-02-02, 03:46:00,VALID,0,VALID,80.3934,VALID,0,VALID,20.0641,VALID,219,VALID,1.89268,
2000-02-02, 03:47:00,VALID,0,VALID,80.2026,VALID,-0.0169808,VALID,20.0193,VALID,190,VALID,1.75308,
2000-02-02, 03:48:00,VALID,0,VALID,80.3883,VALID,-0.101885,VALID,19.997,VALID,189,VALID,1.54859,
2000-02-02, 03:49:00,VALID,0,VALID,80.5091,VALID,-0.101885,VALID,19.9746,VALID,243,VALID,1.87148,
2000-02-02, 03:50:00,VALID,0,VALID,80.6007,VALID,-0.0849042,VALID,19.9525,VALID,222,VALID,2.51665,
2000-02-02, 03:51:00,VALID,0,VALID,80.7812,VALID,-0.0849042,VALID,19.9328,VALID,185,VALID,1.69609,
2000-02-02, 03:52:00,VALID,0,VALID,80.9669,VALID,0,VALID,19.8961,VALID,197,VALID,1.24609,
2000-02-02, 03:53:00,VALID,0,VALID,80.9491,VALID,0,VALID,19.857,VALID,206,VALID,1.97031,
2000-02-02, 03:54:00,VALID,0,VALID,81.0584,VALID,0,VALID,19.8314,VALID,183,VALID,1.63522,
2000-02-02, 03:55:00,VALID,0,VALID,81.1373,VALID,0.0169808,VALID,19.8153,VALID,154,VALID,2.45744,
2000-02-02, 03:56:00,VALID,0,VALID,81.0991,VALID,0.0339617,VALID,19.8185,VALID,201,VALID,2.07444,
2000-02-02, 03:57:00,VALID,0,VALID,81.0775,VALID,0.0169808,VALID,19.8277,VALID,212,VALID,2.26205,
2000-02-02, 03:58:00,VALID,0,VALID,81.1818,VALID,0.0169808,VALID,19.8185,VALID,225,VALID,1.49959,
2000-02-02, 03:59:00,VALID,0,VALID,81.2441,VALID,-0.0169808,VALID,19.8091,VALID,198,VALID,1.33964,
2000-02-02, 04:00:00,VALID,0,VALID,81.2479,VALID,0.0169808,VALID,19.8093,VALID,197,VALID,2.21938,
2000-02-02, 04:01:01,VALID,0,VALID,81.417,VALID,0.0169808,VALID,19.78,VALID,155,VALID,1.70169,
2000-02-02, 04:02:00,VALID,0,VALID,81.0648,VALID,0,VALID,19.7703,VALID,143,VALID,1.53742,
2000-02-02, 04:03:00,VALID,0,VALID,80.9262,VALID,0,VALID,19.7701,VALID,247,VALID,2.621,
2000-02-02, 04:04:00,VALID,0,VALID,80.635,VALID,0,VALID,19.8252,VALID,207,VALID,3.17285,
2000-02-02, 04:05:00,VALID,0,VALID,80.3298,VALID,0,VALID,19.8707,VALID,166,VALID,2.50473,
2000-02-02, 04:06:00,VALID,0,VALID,79.8237,VALID,0,VALID,19.903,VALID,172,VALID,1.94961,